This is the latest recevied weather packets stored in our database for station/object K2CCS. If no packets are shown the sender has not sent any weather packets the latest 10 day(s).
| Time | Temp. | Humidity | Pressure | Rain* | Wind** | Luminosity | Snow |
|---|---|---|---|---|---|---|---|
| 1777981483 | 14.44° C | 70% | 1011.3 hPa | 0 mm | - | 49 W/m² | - |
| 1777981180 | 14.44° C | 70% | 1011.6 hPa | 0 mm | - | 58 W/m² | - |
| 1777980876 | 14.44° C | 70% | 1011.3 hPa | 0 mm | - | 76 W/m² | - |
| 1777980572 | 13.89° C | 71% | 1011.2 hPa | 0 mm | - | 71 W/m² | - |
| 1777980270 | 13.89° C | 71% | 1011 hPa | 0 mm | - | 50 W/m² | - |
| 1777979966 | 13.89° C | 72% | 1011 hPa | 0 mm | - | 39 W/m² | - |
| 1777979661 | 13.89° C | 71% | 1011.3 hPa | 0 mm | - | 31 W/m² | - |
| 1777979357 | 13.89° C | 70% | 1011 hPa | 0 mm | - | 29 W/m² | - |
| 1777979054 | 13.89° C | 69% | 1011.1 hPa | 0 mm | - | 39 W/m² | - |
| 1777978751 | 14.44° C | 68% | 1011.1 hPa | 0 mm | - | 32 W/m² | - |
| 1777978448 | 14.44° C | 67% | 1011.1 hPa | 0 mm | - | 30 W/m² | - |
| 1777978144 | 13.89° C | 67% | 1010.9 hPa | 0 mm | - | 39 W/m² | - |
| 1777977841 | 13.89° C | 67% | 1010.7 hPa | 0 mm | - | 22 W/m² | - |
| 1777977537 | 14.44° C | 66% | 1010.9 hPa | 0 mm | - | 23 W/m² | - |
| 1777977235 | 13.89° C | 67% | 1011.1 hPa | 0 mm | - | 17 W/m² | - |
| 1777976932 | 13.89° C | 68% | 1011.4 hPa | 0 mm | - | 22 W/m² | - |
| 1777976629 | 13.33° C | 70% | 1011.1 hPa | 0 mm | - | 33 W/m² | - |
| 1777976325 | 12.78° C | 71% | 1010.9 hPa | 0 mm | - | 17 W/m² | - |
| 1777976020 | 12.78° C | 73% | 1011 hPa | 0 mm | - | 6 W/m² | - |
| 1777975716 | 12.78° C | 74% | 1011.1 hPa | 0 mm | - | 6 W/m² | - |
| 1777975413 | 12.22° C | 75% | 1010.8 hPa | 0 mm | - | 5 W/m² | - |
| 1777975108 | 12.22° C | 75% | 1010.8 hPa | 0 mm | - | 3 W/m² | - |
| 1777974806 | 11.67° C | 76% | 1010.5 hPa | 0 mm | - | 1 W/m² | - |
| 1777974502 | 11.67° C | 77% | 1010.6 hPa | 0 mm | - | 0 W/m² | - |
| 1777974199 | 11.67° C | 79% | 1010.9 hPa | 0 mm | - | 0 W/m² | - |
* Rain latest hour (hover to see other rain measurements)
** Current wind speed in m/s (hover to see current wind gust speed)